View from above orbital plane
|
View from above satellite
|
Ground track
|
The orbit data is extracted from the following two-line orbital elements,
1 25989U 99066A 21056.83678399 .00000313 00000-0 00000-0 0 9997
2 25989 70.9492 314.6507 6749260 91.3290 0.2118 0.50136185 13296
Epoch (UTC): | 25 February 2021 20:04:58 |
Eccentricity: | 0.6749260 |
inclination: | 70.9492° |
perigee height: | 15379 km |
apogee height: | 105727 km |
right ascension of ascending node: | 314.6507° |
argument of perigee: | 91.3290° |
revolutions per day: | 0.50136185 |
mean anomaly at epoch: | 0.2118° |
orbit number at epoch: | 1329 |
The dashed part of the orbit path shows where the satellite is in the earth's shadow,
|
|